Time,TemperatureF,DewpointF,PressureIn,WindDirection,WindDirectionDegrees,WindSpeedMPH,WindSpeedGustMPH,Humidity,HourlyPrecipIn,Conditions,Clouds,dailyrainin,SoftwareType,DateUTC
2013-04-26 00:02:00,56.4,44.4,30.06,East,90,0.0,3.8,64,0.00,,,0.00,WUHU216HW,2013-04-26 07:02:00,
2013-04-26 00:07:00,56.3,44.2,30.06,NNE,23,0.0,0.0,64,0.00,,,0.00,WUHU216HW,2013-04-26 07:07:00,
2013-04-26 00:12:00,56.3,44.6,30.06,East,90,0.0,0.0,65,0.00,,,0.00,WUHU216HW,2013-04-26 07:12:00,
2013-04-26 00:17:00,55.9,44.7,30.06,West,270,0.0,0.0,66,0.00,,,0.00,WUHU216HW,2013-04-26 07:17:00,
2013-04-26 00:22:00,55.7,44.5,30.06,SE,135,0.0,0.0,66,0.00,,,0.00,WUHU216HW,2013-04-26 07:22:00,
2013-04-26 00:27:00,55.5,44.7,30.06,SSW,203,0.0,0.0,67,0.00,,,0.00,WUHU216HW,2013-04-26 07:27:00,
2013-04-26 00:32:00,55.5,44.7,30.06,West,270,0.0,0.0,67,0.00,,,0.00,WUHU216HW,2013-04-26 07:32:00,
2013-04-26 00:37:00,55.2,44.4,30.06,NW,315,0.0,0.0,67,0.00,,,0.00,WUHU216HW,2013-04-26 07:37:00,
2013-04-26 00:42:00,55.2,44.4,30.07,NNW,338,0.0,0.0,67,0.00,,,0.00,WUHU216HW,2013-04-26 07:42:00,
2013-04-26 00:47:00,55.0,44.2,30.07,WNW,293,0.0,0.0,67,0.00,,,0.00,WUHU216HW,2013-04-26 07:47:00,
2013-04-26 00:52:00,54.8,44.0,30.07,WSW,248,0.0,0.0,67,0.00,,,0.00,WUHU216HW,2013-04-26 07:52:00,
2013-04-26 00:57:00,54.8,44.4,30.07,WSW,248,0.0,0.0,68,0.00,,,0.00,WUHU216HW,2013-04-26 07:57:00,
2013-04-26 01:02:00,54.5,43.7,30.07,WSW,248,0.0,0.0,67,0.00,,,0.00,WUHU216HW,2013-04-26 08:02:00,
2013-04-26 01:07:00,54.5,44.1,30.07,NNW,338,0.0,0.0,68,0.00,,,0.00,WUHU216HW,2013-04-26 08:07:00,
2013-04-26 01:12:00,54.5,44.1,30.07,North,0,0.0,0.0,68,0.00,,,0.00,WUHU216HW,2013-04-26 08:12:00,
2013-04-26 01:17:00,54.3,44.3,30.07,WNW,293,0.0,0.0,69,0.00,,,0.00,WUHU216HW,2013-04-26 08:17:00,
2013-04-26 01:22:00,54.3,44.3,30.07,WNW,293,0.0,0.0,69,0.00,,,0.00,WUHU216HW,2013-04-26 08:22:00,
2013-04-26 01:27:00,54.3,44.3,30.07,NNE,23,0.0,0.0,69,0.00,,,0.00,WUHU216HW,2013-04-26 08:27:00,
2013-04-26 01:32:00,54.3,44.3,30.07,North,0,0.0,0.0,69,0.00,,,0.00,WUHU216HW,2013-04-26 08:32:00,
2013-04-26 01:37:00,54.1,44.1,30.07,North,0,0.0,0.0,69,0.00,,,0.00,WUHU216HW,2013-04-26 08:37:00,
2013-04-26 01:42:00,54.1,44.1,30.07,North,0,0.0,0.0,69,0.00,,,0.00,WUHU216HW,2013-04-26 08:42:00,
2013-04-26 01:47:00,54.1,44.1,30.07,North,0,0.0,0.0,69,0.00,,,0.00,WUHU216HW,2013-04-26 08:47:00,
2013-04-26 01:52:00,53.9,43.6,30.07,North,0,0.0,0.0,68,0.00,,,0.00,WUHU216HW,2013-04-26 08:52:00,
2013-04-26 01:57:00,53.7,43.6,30.07,North,0,0.0,0.0,68,0.00,,,0.00,WUHU216HW,2013-04-26 08:57:00,
2013-04-26 02:02:00,53.7,43.4,30.06,North,0,0.0,0.0,68,0.00,,,0.00,WUHU216HW,2013-04-26 09:02:00,
2013-04-26 02:07:00,53.7,43.4,30.06,North,0,0.0,0.0,68,0.00,,,0.00,WUHU216HW,2013-04-26 09:07:00,
2013-04-26 02:12:00,53.6,43.2,30.07,WSW,248,0.0,0.0,68,0.00,,,0.00,WUHU216HW,2013-04-26 09:12:00,
2013-04-26 02:17:00,53.4,43.0,30.07,WNW,293,0.0,0.0,68,0.00,,,0.00,WUHU216HW,2013-04-26 09:17:00,
2013-04-26 02:22:00,53.2,42.9,30.07,WNW,293,0.0,0.0,68,0.00,,,0.00,WUHU216HW,2013-04-26 09:22:00,
2013-04-26 02:27:00,53.2,43.3,30.07,WNW,293,0.0,0.0,69,0.00,,,0.00,WUHU216HW,2013-04-26 09:27:00,
2013-04-26 02:32:00,53.2,43.7,30.07,North,0,0.0,0.0,70,0.00,,,0.00,WUHU216HW,2013-04-26 09:32:00,
2013-04-26 02:37:00,53.2,43.7,30.07,WSW,248,0.0,0.0,70,0.00,,,0.00,WUHU216HW,2013-04-26 09:37:00,
2013-04-26 02:42:00,53.2,43.7,30.07,WNW,293,0.0,1.5,70,0.00,,,0.00,WUHU216HW,2013-04-26 09:42:00,
2013-04-26 02:47:00,53.2,43.7,30.07,WNW,293,0.0,1.5,70,0.00,,,0.00,WUHU216HW,2013-04-26 09:47:00,
2013-04-26 02:52:00,53.0,43.9,30.07,NNW,338,0.0,0.0,71,0.00,,,0.00,WUHU216HW,2013-04-26 09:52:00,
2013-04-26 02:57:00,53.0,43.9,30.07,WSW,248,0.0,0.0,71,0.00,,,0.00,WUHU216HW,2013-04-26 09:57:00,
2013-04-26 03:02:00,52.8,43.7,30.07,West,270,0.0,0.0,71,0.00,,,0.00,WUHU216HW,2013-04-26 10:02:00,
2013-04-26 03:07:00,52.7,43.5,30.07,WNW,293,0.0,0.0,71,0.00,,,0.00,WUHU216HW,2013-04-26 10:07:00,
2013-04-26 03:12:00,52.7,43.5,30.07,WNW,293,0.0,0.0,71,0.00,,,0.00,WUHU216HW,2013-04-26 10:12:00,
2013-04-26 03:17:00,52.7,43.5,30.07,West,270,0.0,0.0,71,0.00,,,0.00,WUHU216HW,2013-04-26 10:17:00,
2013-04-26 03:22:00,52.5,43.4,30.07,NW,315,0.0,0.0,71,0.00,,,0.00,WUHU216HW,2013-04-26 10:22:00,
2013-04-26 03:27:00,52.5,43.7,30.07,NW,315,0.0,0.0,72,0.00,,,0.00,WUHU216HW,2013-04-26 10:27:00,
2013-04-26 03:32:00,52.5,43.7,30.08,NW,315,0.0,0.0,72,0.00,,,0.00,WUHU216HW,2013-04-26 10:32:00,
2013-04-26 03:37:00,52.5,43.4,30.07,NW,315,0.0,0.0,71,0.00,,,0.00,WUHU216HW,2013-04-26 10:37:00,
2013-04-26 03:42:00,52.3,43.2,30.08,NW,315,0.0,0.0,71,0.00,,,0.00,WUHU216HW,2013-04-26 10:42:00,
2013-04-26 03:47:00,52.3,43.2,30.08,NNW,338,0.0,0.0,71,0.00,,,0.00,WUHU216HW,2013-04-26 10:47:00,
2013-04-26 03:52:00,52.1,42.7,30.08,NNW,338,0.0,0.0,70,0.00,,,0.00,WUHU216HW,2013-04-26 10:52:00,
2013-04-26 03:57:00,52.1,42.7,30.08,NNW,338,0.0,0.0,70,0.00,,,0.00,WUHU216HW,2013-04-26 10:57:00,
2013-04-26 04:02:00,52.1,42.7,30.08,NNW,338,0.0,0.0,70,0.00,,,0.00,WUHU216HW,2013-04-26 11:02:00,
2013-04-26 04:07:00,51.9,42.6,30.09,NNW,338,0.0,0.0,70,0.00,,,0.00,WUHU216HW,2013-04-26 11:07:00,
2013-04-26 04:12:00,51.8,42.4,30.09,NNW,338,0.0,0.0,70,0.00,,,0.00,WUHU216HW,2013-04-26 11:12:00,
2013-04-26 04:17:00,51.6,42.2,30.09,NNW,338,0.0,0.0,70,0.00,,,0.00,WUHU216HW,2013-04-26 11:17:00,
2013-04-26 04:23:00,51.6,42.2,30.09,NNW,338,0.0,0.0,70,0.00,,,0.00,WUHU216HW,2013-04-26 11:23:00,
2013-04-26 04:28:00,51.4,42.0,30.09,NNW,338,0.0,0.0,70,0.00,,,0.00,WUHU216HW,2013-04-26 11:28:00,
2013-04-26 04:33:00,51.4,42.0,30.09,NNW,338,0.0,0.0,70,0.00,,,0.00,WUHU216HW,2013-04-26 11:33:00,
2013-04-26 04:38:00,51.4,42.0,30.09,NNW,338,0.0,0.0,70,0.00,,,0.00,WUHU216HW,2013-04-26 11:38:00,
2013-04-26 04:43:00,51.2,41.9,30.09,NNW,338,0.0,0.0,70,0.00,,,0.00,WUHU216HW,2013-04-26 11:43:00,
2013-04-26 04:48:00,51.0,41.7,30.09,NNW,338,0.0,0.0,70,0.00,,,0.00,WUHU216HW,2013-04-26 11:48:00,
2013-04-26 04:53:00,51.0,41.7,30.09,NNW,338,0.0,0.0,70,0.00,,,0.00,WUHU216HW,2013-04-26 11:53:00,
2013-04-26 04:58:00,50.9,41.5,30.09,NNW,338,0.0,0.0,70,0.00,,,0.00,WUHU216HW,2013-04-26 11:58:00,
2013-04-26 05:03:00,50.9,41.8,30.09,NNW,338,0.0,0.0,71,0.00,,,0.00,WUHU216HW,2013-04-26 12:03:00,
2013-04-26 05:08:00,50.9,41.8,30.09,NNW,338,0.0,0.0,71,0.00,,,0.00,WUHU216HW,2013-04-26 12:08:00,
2013-04-26 05:13:00,50.9,41.8,30.09,NNW,338,0.0,0.0,71,0.00,,,0.00,WUHU216HW,2013-04-26 12:13:00,
2013-04-26 05:18:00,50.7,42.0,30.09,NNW,338,0.0,0.0,72,0.00,,,0.00,WUHU216HW,2013-04-26 12:18:00,
2013-04-26 05:23:00,50.7,42.3,30.09,NNW,338,0.0,0.0,73,0.00,,,0.00,WUHU216HW,2013-04-26 12:23:00,
2013-04-26 05:28:00,50.7,42.3,30.10,NNW,338,0.0,0.0,73,0.00,,,0.00,WUHU216HW,2013-04-26 12:28:00,
2013-04-26 05:33:00,50.5,42.2,30.10,NNW,338,0.0,0.0,73,0.00,,,0.00,WUHU216HW,2013-04-26 12:33:00,
2013-04-26 05:38:00,50.3,42.0,30.10,NNW,338,0.0,0.0,73,0.00,,,0.00,WUHU216HW,2013-04-26 12:38:00,
2013-04-26 05:43:00,50.3,41.6,30.10,NNW,338,0.0,0.0,72,0.00,,,0.00,WUHU216HW,2013-04-26 12:43:00,
2013-04-26 05:48:00,50.1,41.5,30.10,NNW,338,0.0,0.0,72,0.00,,,0.00,WUHU216HW,2013-04-26 12:48:00,
2013-04-26 05:53:00,50.1,41.5,30.10,NNW,338,0.0,0.0,72,0.00,,,0.00,WUHU216HW,2013-04-26 12:53:00,
2013-04-26 05:58:00,50.1,41.5,30.10,NNW,338,0.0,0.0,72,0.00,,,0.00,WUHU216HW,2013-04-26 12:58:00,
2013-04-26 06:03:00,50.1,41.8,30.10,NNW,338,0.0,0.0,73,0.00,,,0.00,WUHU216HW,2013-04-26 13:03:00,
2013-04-26 06:08:00,50.1,41.8,30.11,NNW,338,0.0,0.0,73,0.00,,,0.00,WUHU216HW,2013-04-26 13:08:00,
2013-04-26 06:13:00,49.8,41.4,30.11,NNW,338,0.0,0.0,73,0.00,,,0.00,WUHU216HW,2013-04-26 13:13:00,
2013-04-26 06:18:00,49.6,41.3,30.11,NNW,338,0.0,0.0,73,0.00,,,0.00,WUHU216HW,2013-04-26 13:18:00,
2013-04-26 06:23:00,49.6,41.3,30.11,NNW,338,0.0,0.0,73,0.00,,,0.00,WUHU216HW,2013-04-26 13:23:00,
2013-04-26 06:28:00,49.6,41.3,30.11,NNW,338,0.0,0.0,73,0.00,,,0.00,WUHU216HW,2013-04-26 13:28:00,
2013-04-26 06:33:00,49.6,41.3,30.11,NNW,338,0.0,0.0,73,0.00,,,0.00,WUHU216HW,2013-04-26 13:33:00,
2013-04-26 06:38:00,49.6,41.6,30.11,NNW,338,0.0,0.0,74,0.00,,,0.00,WUHU216HW,2013-04-26 13:38:00,
2013-04-26 06:43:00,49.8,41.8,30.12,NNW,338,0.0,0.0,74,0.00,,,0.00,WUHU216HW,2013-04-26 13:43:00,
2013-04-26 06:48:00,50.1,42.5,30.12,NW,315,0.0,0.0,75,0.00,,,0.00,WUHU216HW,2013-04-26 13:48:00,
2013-04-26 06:53:00,50.3,42.7,30.12,WSW,248,0.0,0.0,75,0.00,,,0.00,WUHU216HW,2013-04-26 13:53:00,
2013-04-26 06:58:00,50.3,42.7,30.12,WSW,248,0.0,0.0,76,0.00,,,0.00,WUHU216HW,2013-04-26 13:58:00,
2013-04-26 07:03:00,50.5,43.2,30.12,WSW,248,0.0,0.0,76,0.00,,,0.00,WUHU216HW,2013-04-26 14:03:00,
2013-04-26 07:08:00,50.7,43.4,30.13,WSW,248,0.0,0.0,76,0.00,,,0.00,WUHU216HW,2013-04-26 14:08:00,
2013-04-26 07:13:00,50.9,43.2,30.13,WSW,248,0.0,0.0,75,0.00,,,0.00,WUHU216HW,2013-04-26 14:13:00,
2013-04-26 07:18:00,51.2,43.9,30.13,WSW,248,0.0,0.0,76,0.00,,,0.00,WUHU216HW,2013-04-26 14:18:00,
2013-04-26 07:23:00,51.4,44.1,30.14,WSW,248,0.0,0.0,76,0.00,,,0.00,WUHU216HW,2013-04-26 14:23:00,
2013-04-26 07:28:00,51.9,44.6,30.14,SSW,203,0.0,0.0,76,0.00,,,0.00,WUHU216HW,2013-04-26 14:28:00,
2013-04-26 07:33:00,52.3,45.3,30.14,SSW,203,0.0,0.0,77,0.00,,,0.00,WUHU216HW,2013-04-26 14:33:00,
2013-04-26 07:38:00,52.8,45.8,30.14,SSW,203,0.0,0.0,77,0.00,,,0.00,WUHU216HW,2013-04-26 14:38:00,
2013-04-26 07:43:00,53.7,46.7,30.14,SSW,203,0.0,0.0,77,0.00,,,0.00,WUHU216HW,2013-04-26 14:43:00,
2013-04-26 07:48:00,53.7,46.7,30.15,NNW,338,0.0,0.0,77,0.00,,,0.00,WUHU216HW,2013-04-26 14:48:00,
2013-04-26 07:53:00,54.8,47.3,30.15,North,0,2.0,2.0,76,0.00,,,0.00,WUHU216HW,2013-04-26 14:53:00,
2013-04-26 07:58:00,55.4,47.5,30.15,NNW,338,1.5,2.0,75,0.00,,,0.00,WUHU216HW,2013-04-26 14:58:00,
2013-04-26 08:03:00,55.7,47.5,30.15,SW,225,0.0,1.5,74,0.00,,,0.00,WUHU216HW,2013-04-26 15:03:00,
2013-04-26 08:08:00,56.1,47.8,30.15,South,180,0.0,1.5,74,0.00,,,0.00,WUHU216HW,2013-04-26 15:08:00,
2013-04-26 08:13:00,56.3,47.3,30.15,SE,135,0.0,0.6,72,0.00,,,0.00,WUHU216HW,2013-04-26 15:13:00,
2013-04-26 08:18:00,56.8,47.4,30.15,ESE,113,0.0,0.0,71,0.00,,,0.00,WUHU216HW,2013-04-26 15:18:00,
2013-04-26 08:23:00,57.2,47.8,30.15,NNE,23,1.7,1.7,71,0.00,,,0.00,WUHU216HW,2013-04-26 15:23:00,
2013-04-26 08:28:00,57.5,47.8,30.15,WSW,248,0.0,1.7,70,0.00,,,0.00,WUHU216HW,2013-04-26 15:28:00,
2013-04-26 08:33:00,57.7,47.6,30.16,NNW,338,0.0,0.0,69,0.00,,,0.00,WUHU216HW,2013-04-26 15:33:00,
2013-04-26 08:38:00,58.1,47.9,30.15,SW,225,0.4,3.5,69,0.00,,,0.00,WUHU216HW,2013-04-26 15:38:00,
2013-04-26 08:43:00,58.4,47.4,30.15,North,0,1.3,3.5,67,0.00,,,0.00,WUHU216HW,2013-04-26 15:43:00,
2013-04-26 08:48:00,58.6,47.6,30.15,NW,315,1.5,1.5,67,0.00,,,0.00,WUHU216HW,2013-04-26 15:48:00,
2013-04-26 08:53:00,59.3,47.9,30.15,NW,315,0.0,1.5,66,0.00,,,0.00,WUHU216HW,2013-04-26 15:53:00,
2013-04-26 08:58:00,59.5,48.1,30.15,WSW,248,0.0,0.0,66,0.00,,,0.00,WUHU216HW,2013-04-26 15:58:00,
2013-04-26 09:03:00,60.4,48.2,30.16,WSW,248,0.0,1.5,64,0.00,,,0.00,WUHU216HW,2013-04-26 16:03:00,
2013-04-26 09:08:00,60.4,47.8,30.16,WSW,248,2.0,2.0,63,0.00,,,0.00,WUHU216HW,2013-04-26 16:08:00,
2013-04-26 09:13:00,60.9,47.9,30.16,WSW,248,2.2,2.2,62,0.00,,,0.00,WUHU216HW,2013-04-26 16:13:00,
2013-04-26 09:18:00,61.1,48.0,30.15,WSW,248,0.0,2.2,62,0.00,,,0.00,WUHU216HW,2013-04-26 16:18:00,
2013-04-26 09:23:00,61.5,48.0,30.16,WSW,248,0.0,2.0,61,0.00,,,0.00,WUHU216HW,2013-04-26 16:23:00,
2013-04-26 09:28:00,61.7,48.1,30.16,WSW,248,0.0,0.0,61,0.00,,,0.00,WUHU216HW,2013-04-26 16:28:00,
2013-04-26 09:33:00,62.4,48.3,30.16,WSW,248,0.0,0.0,60,0.00,,,0.00,WUHU216HW,2013-04-26 16:33:00,
2013-04-26 09:38:00,62.9,48.8,30.15,WSW,248,0.0,0.0,60,0.00,,,0.00,WUHU216HW,2013-04-26 16:38:00,
2013-04-26 09:43:00,63.3,48.4,30.15,WSW,248,0.2,1.3,58,0.00,,,0.00,WUHU216HW,2013-04-26 16:43:00,
2013-04-26 09:48:00,64.0,48.8,30.16,WSW,248,1.5,2.4,58,0.00,,,0.00,WUHU216HW,2013-04-26 16:48:00,
2013-04-26 09:53:00,64.2,48.5,30.16,WSW,248,0.0,2.4,57,0.00,,,0.00,WUHU216HW,2013-04-26 16:53:00,
2013-04-26 09:58:00,64.5,48.9,30.16,WSW,248,2.2,2.2,57,0.00,,,0.00,WUHU216HW,2013-04-26 16:58:00,
2013-04-26 10:03:00,65.1,48.4,30.16,WSW,248,2.2,2.2,55,0.00,,,0.00,WUHU216HW,2013-04-26 17:03:00,
2013-04-26 10:08:00,65.6,49.0,30.16,West,270,0.0,2.2,55,0.00,,,0.00,WUHU216HW,2013-04-26 17:08:00,
2013-04-26 10:13:00,66.3,48.8,30.16,WSW,248,1.5,2.2,54,0.00,,,0.00,WUHU216HW,2013-04-26 17:13:00,
2013-04-26 10:18:00,66.5,48.9,30.16,WSW,248,0.0,1.7,53,0.00,,,0.00,WUHU216HW,2013-04-26 17:18:00,
2013-04-26 10:24:00,67.2,49.5,30.16,North,0,1.5,2.4,53,0.00,,,0.00,WUHU216HW,2013-04-26 17:24:00,
2013-04-26 10:29:00,68.3,49.5,30.16,NNW,338,1.5,5.3,51,0.00,,,0.00,WUHU216HW,2013-04-26 17:29:00,
2013-04-26 10:34:00,68.9,49.5,30.16,NW,315,1.1,5.3,50,0.00,,,0.00,WUHU216HW,2013-04-26 17:34:00,
2013-04-26 10:39:00,69.4,48.8,30.16,East,90,0.0,1.5,48,0.00,,,0.00,WUHU216HW,2013-04-26 17:39:00,
2013-04-26 10:44:00,70.1,49.3,30.16,North,0,0.0,3.5,48,0.00,,,0.00,WUHU216HW,2013-04-26 17:44:00,
2013-04-26 10:49:00,70.5,49.2,30.16,ESE,113,0.0,3.5,47,0.00,,,0.00,WUHU216HW,2013-04-26 17:49:00,
2013-04-26 10:54:00,70.8,48.9,30.16,North,0,6.0,6.0,46,0.00,,,0.00,WUHU216HW,2013-04-26 17:54:00,
2013-04-26 10:59:00,71.7,48.5,30.16,NNW,338,0.0,6.0,45,0.00,,,0.00,WUHU216HW,2013-04-26 17:59:00,
2013-04-26 11:04:00,72.3,49.0,30.16,NNW,338,0.0,0.0,44,0.00,,,0.00,WUHU216HW,2013-04-26 18:04:00,
2013-04-26 11:09:00,73.0,49.7,30.16,NNW,338,3.1,3.1,44,0.00,,,0.00,WUHU216HW,2013-04-26 18:09:00,
2013-04-26 11:14:00,73.9,49.9,30.16,NW,315,2.6,6.9,43,0.00,,,0.00,WUHU216HW,2013-04-26 18:14:00,
2013-04-26 11:19:00,74.3,50.2,30.15,SW,225,0.0,6.9,43,0.00,,,0.00,WUHU216HW,2013-04-26 18:19:00,
2013-04-26 11:24:00,74.8,50.7,30.15,NNW,338,2.2,2.6,43,0.00,,,0.00,WUHU216HW,2013-04-26 18:24:00,
2013-04-26 11:29:00,75.5,50.2,30.16,NNW,338,2.6,2.6,41,0.00,,,0.00,WUHU216HW,2013-04-26 18:29:00,
2013-04-26 11:34:00,75.9,50.5,30.16,NNW,338,1.1,2.6,41,0.00,,,0.00,WUHU216HW,2013-04-26 18:34:00,
2013-04-26 11:39:00,76.4,50.4,30.16,North,0,0.0,2.6,40,0.00,,,0.00,WUHU216HW,2013-04-26 18:39:00,
2013-04-26 11:44:00,77.1,49.5,30.16,SSE,158,2.0,4.9,38,0.00,,,0.00,WUHU216HW,2013-04-26 18:44:00,
2013-04-26 11:49:00,77.5,49.8,30.16,NNW,338,3.8,4.9,38,0.00,,,0.00,WUHU216HW,2013-04-26 18:49:00,
2013-04-26 11:54:00,77.9,49.4,30.15,NW,315,0.0,3.8,37,0.00,,,0.00,WUHU216HW,2013-04-26 18:54:00,
2013-04-26 11:59:00,78.8,48.6,30.15,North,0,4.4,4.4,35,0.00,,,0.00,WUHU216HW,2013-04-26 18:59:00,
2013-04-26 12:04:00,79.1,48.9,30.15,NNW,338,0.0,4.4,35,0.00,,,0.00,WUHU216HW,2013-04-26 19:04:00,
2013-04-26 12:09:00,79.1,48.9,30.15,NNW,338,3.8,4.4,35,0.00,,,0.00,WUHU216HW,2013-04-26 19:09:00,
2013-04-26 12:14:00,79.7,48.6,30.15,NNW,338,3.5,3.8,34,0.00,,,0.00,WUHU216HW,2013-04-26 19:14:00,
2013-04-26 12:19:00,79.3,47.5,30.15,East,90,0.0,4.2,33,0.00,,,0.00,WUHU216HW,2013-04-26 19:19:00,
2013-04-26 12:24:00,79.5,47.7,30.14,NNW,338,3.5,4.2,33,0.00,,,0.00,WUHU216HW,2013-04-26 19:24:00,
2013-04-26 12:29:00,80.0,49.0,30.14,ESE,113,0.0,3.5,34,0.00,,,0.00,WUHU216HW,2013-04-26 19:29:00,
2013-04-26 12:34:00,80.9,49.7,30.14,SE,135,5.8,5.8,34,0.00,,,0.00,WUHU216HW,2013-04-26 19:34:00,
2013-04-26 12:39:00,81.8,50.3,30.14,SE,135,5.8,5.8,34,0.00,,,0.00,WUHU216HW,2013-04-26 19:39:00,
2013-04-26 12:44:00,81.8,48.9,30.14,NNW,338,3.1,5.8,32,0.00,,,0.00,WUHU216HW,2013-04-26 19:44:00,
2013-04-26 12:49:00,82.0,48.3,30.13,NNW,338,0.0,3.1,31,0.00,,,0.00,WUHU216HW,2013-04-26 19:49:00,
2013-04-26 12:54:00,82.2,48.4,30.13,NNW,338,0.6,3.1,31,0.00,,,0.00,WUHU216HW,2013-04-26 19:54:00,
2013-04-26 12:59:00,82.5,48.0,30.13,West,270,0.0,3.1,30,0.00,,,0.00,WUHU216HW,2013-04-26 19:59:00,
2013-04-26 13:04:00,82.5,48.7,30.13,SSE,158,3.3,3.3,31,0.00,,,0.00,WUHU216HW,2013-04-26 20:04:00,
2013-04-26 13:09:00,83.8,49.9,30.13,SSW,203,0.0,3.3,31,0.00,,,0.00,WUHU216HW,2013-04-26 20:09:00,
2013-04-26 13:14:00,84.5,49.7,30.13,North,0,1.5,1.7,30,0.00,,,0.00,WUHU216HW,2013-04-26 20:14:00,
2013-04-26 13:19:00,85.1,49.1,30.13,WNW,293,0.0,3.8,29,0.00,,,0.00,WUHU216HW,2013-04-26 20:19:00,
2013-04-26 13:24:00,85.1,48.1,30.13,NNW,338,2.6,3.8,28,0.00,,,0.00,WUHU216HW,2013-04-26 20:24:00,
2013-04-26 13:29:00,85.1,48.1,30.12,NNE,23,0.0,5.3,28,0.00,,,0.00,WUHU216HW,2013-04-26 20:29:00,
2013-04-26 13:34:00,85.4,48.4,30.12,North,0,3.3,5.3,28,0.00,,,0.00,WUHU216HW,2013-04-26 20:34:00,
2013-04-26 13:39:00,85.6,47.5,30.12,North,0,0.0,3.3,27,0.00,,,0.00,WUHU216HW,2013-04-26 20:39:00,
2013-04-26 13:44:00,85.6,48.5,30.12,SE,135,1.7,3.3,28,0.00,,,0.00,WUHU216HW,2013-04-26 20:44:00,
2013-04-26 13:49:00,86.3,49.2,30.12,NNW,338,7.1,7.1,28,0.00,,,0.00,WUHU216HW,2013-04-26 20:49:00,
2013-04-26 13:54:00,86.3,48.1,30.12,NNW,338,0.0,7.1,27,0.00,,,0.00,WUHU216HW,2013-04-26 20:54:00,
2013-04-26 13:59:00,86.7,48.4,30.12,SE,135,0.0,3.5,27,0.00,,,0.00,WUHU216HW,2013-04-26 20:59:00,
2013-04-26 14:04:00,87.2,47.8,30.12,SW,225,1.5,1.5,26,0.00,,,0.00,WUHU216HW,2013-04-26 21:04:00,
2013-04-26 14:09:00,88.3,48.7,30.12,NW,315,1.1,1.5,26,0.00,,,0.00,WUHU216HW,2013-04-26 21:09:00,
2013-04-26 14:14:00,88.8,48.1,30.12,SE,135,0.0,4.0,25,0.00,,,0.00,WUHU216HW,2013-04-26 21:14:00,
2013-04-26 14:19:00,89.2,47.3,30.12,SE,135,7.1,7.1,24,0.00,,,0.00,WUHU216HW,2013-04-26 21:19:00,
2013-04-26 14:24:00,90.1,49.1,30.11,South,180,0.0,7.1,25,0.00,,,0.00,WUHU216HW,2013-04-26 21:24:00,
2013-04-26 14:29:00,90.8,47.6,30.11,NNW,338,0.0,4.0,23,0.00,,,0.00,WUHU216HW,2013-04-26 21:29:00,
2013-04-26 14:34:00,91.4,48.0,30.11,NNW,338,1.5,2.0,23,0.00,,,0.00,WUHU216HW,2013-04-26 21:34:00,
2013-04-26 14:39:00,91.7,47.2,30.11,NNW,338,1.5,1.5,22,0.00,,,0.00,WUHU216HW,2013-04-26 21:39:00,
2013-04-26 14:44:00,91.7,48.3,30.11,South,180,4.2,4.2,23,0.00,,,0.00,WUHU216HW,2013-04-26 21:44:00,
2013-04-26 14:49:00,92.4,48.9,30.11,SSE,158,2.2,5.5,23,0.00,,,0.00,WUHU216HW,2013-04-26 21:49:00,
2013-04-26 14:54:00,93.9,48.9,30.11,SE,135,1.5,5.5,22,0.00,,,0.00,WUHU216HW,2013-04-26 21:54:00,
2013-04-26 14:59:00,95.1,46.4,30.11,NNW,338,1.7,2.2,19,0.00,,,0.00,WUHU216HW,2013-04-26 21:59:00,
2013-04-26 15:04:00,95.3,46.5,30.10,NNW,338,2.6,2.6,19,0.00,,,0.00,WUHU216HW,2013-04-26 22:04:00,
2013-04-26 15:09:00,95.3,46.5,30.10,South,180,0.0,2.6,19,0.00,,,0.00,WUHU216HW,2013-04-26 22:09:00,
2013-04-26 15:14:00,97.3,48.2,30.10,SE,135,0.8,3.1,19,0.00,,,0.00,WUHU216HW,2013-04-26 22:14:00,
2013-04-26 15:19:00,98.9,49.5,30.10,SE,135,2.0,3.1,19,0.00,,,0.00,WUHU216HW,2013-04-26 22:19:00,
2013-04-26 15:24:00,99.3,49.8,30.10,NW,315,3.8,3.8,19,0.00,,,0.00,WUHU216HW,2013-04-26 22:24:00,
2013-04-26 15:29:00,98.9,49.5,30.10,North,0,2.0,3.8,19,0.00,,,0.00,WUHU216HW,2013-04-26 22:29:00,
2013-04-26 15:34:00,98.4,49.1,30.09,ESE,113,0.0,2.4,19,0.00,,,0.00,WUHU216HW,2013-04-26 22:34:00,
2013-04-26 15:39:00,98.6,49.2,30.10,SSE,158,0.0,4.4,19,0.00,,,0.00,WUHU216HW,2013-04-26 22:39:00,
2013-04-26 15:44:00,98.7,49.3,30.09,SSE,158,0.0,4.4,19,0.00,,,0.00,WUHU216HW,2013-04-26 22:44:00,
2013-04-26 15:49:00,99.1,49.6,30.09,SSE,158,5.3,5.3,19,0.00,,,0.00,WUHU216HW,2013-04-26 22:49:00,
2013-04-26 15:54:00,99.5,50.0,30.09,SE,135,2.2,5.3,19,0.00,,,0.00,WUHU216HW,2013-04-26 22:54:00,
2013-04-26 15:59:00,100.0,50.4,30.09,SSE,158,0.0,5.3,19,0.00,,,0.00,WUHU216HW,2013-04-26 22:59:00,
2013-04-26 16:04:00,99.5,50.0,30.09,SE,135,1.3,2.2,19,0.00,,,0.00,WUHU216HW,2013-04-26 23:04:00,
2013-04-26 16:09:00,99.5,50.0,30.08,SSE,158,2.6,2.6,19,0.00,,,0.00,WUHU216HW,2013-04-26 23:09:00,
2013-04-26 16:14:00,99.6,50.1,30.09,SE,135,1.5,2.6,19,0.00,,,0.00,WUHU216HW,2013-04-26 23:14:00,
2013-04-26 16:19:00,99.8,50.2,30.08,SE,135,0.0,2.2,19,0.00,,,0.00,WUHU216HW,2013-04-26 23:19:00,
2013-04-26 16:24:00,99.8,50.2,30.08,SE,135,0.0,3.8,19,0.00,,,0.00,WUHU216HW,2013-04-26 23:24:00,
2013-04-26 16:30:00,98.9,49.5,30.08,SE,135,4.4,4.4,19,0.00,,,0.00,WUHU216HW,2013-04-26 23:30:00,
2013-04-26 16:35:00,98.2,48.9,30.08,SE,135,0.8,4.4,19,0.00,,,0.00,WUHU216HW,2013-04-26 23:35:00,
2013-04-26 16:40:00,97.1,48.0,30.08,NNW,338,0.6,5.5,19,0.00,,,0.00,WUHU216HW,2013-04-26 23:40:00,
2013-04-26 16:45:00,95.7,46.9,30.07,SSE,158,0.0,5.5,19,0.00,,,0.00,WUHU216HW,2013-04-26 23:45:00,
2013-04-26 16:50:00,95.1,46.4,30.07,NNW,338,0.0,4.2,19,0.00,,,0.00,WUHU216HW,2013-04-26 23:50:00,
2013-04-26 16:54:00,94.4,45.8,30.07,SE,135,2.6,2.6,19,0.00,,,0.00,WUHU216HW,2013-04-26 23:54:00,
2013-04-26 17:05:00,93.2,44.8,30.07,SSE,158,2.2,2.6,19,0.00,,,0.00,WUHU216HW,2013-04-27 00:05:00,
2013-04-26 17:13:00,90.8,42.9,30.07,NNE,23,0.0,2.6,19,0.00,,,0.00,WUHU216HW,2013-04-27 00:13:00,
2013-04-26 17:18:00,90.1,42.3,30.07,ESE,113,0.0,2.6,19,0.00,,,0.00,WUHU216HW,2013-04-27 00:18:00,
2013-04-26 17:23:00,89.2,41.6,30.07,NNW,338,1.7,1.7,19,0.00,,,0.00,WUHU216HW,2013-04-27 00:23:00,
2013-04-26 17:28:00,88.5,41.0,30.07,North,0,0.0,3.8,19,0.00,,,0.00,WUHU216HW,2013-04-27 00:28:00,
2013-04-26 17:33:00,87.9,40.5,30.07,North,0,3.1,3.8,19,0.00,,,0.00,WUHU216HW,2013-04-27 00:33:00,
2013-04-26 17:38:00,87.2,39.9,30.07,NNW,338,0.0,3.3,19,0.00,,,0.00,WUHU216HW,2013-04-27 00:38:00,
2013-04-26 17:43:00,86.7,39.5,30.06,North,0,0.0,3.1,19,0.00,,,0.00,WUHU216HW,2013-04-27 00:43:00,
2013-04-26 17:48:00,86.3,42.7,30.06,NNE,23,3.8,3.8,22,0.00,,,0.00,WUHU216HW,2013-04-27 00:48:00,
2013-04-26 17:53:00,86.1,43.6,30.06,NNW,338,0.0,3.8,23,0.00,,,0.00,WUHU216HW,2013-04-27 00:53:00,
2013-04-26 17:58:00,85.6,43.2,30.06,NNW,338,1.3,1.3,23,0.00,,,0.00,WUHU216HW,2013-04-27 00:58:00,
2013-04-26 18:03:00,85.4,44.1,30.07,NNW,338,0.0,1.3,24,0.00,,,0.00,WUHU216HW,2013-04-27 01:03:00,
2013-04-26 18:09:00,84.5,44.4,30.07,WNW,293,0.0,1.3,25,0.00,,,0.00,WUHU216HW,2013-04-27 01:09:00,
2013-04-26 18:15:00,84.3,45.3,30.07,SSW,203,0.0,0.0,26,0.00,,,0.00,WUHU216HW,2013-04-27 01:15:00,
2013-04-26 18:20:00,84.0,45.0,30.07,South,180,0.0,0.0,26,0.00,,,0.00,WUHU216HW,2013-04-27 01:20:00,
2013-04-26 18:25:00,83.6,44.7,30.07,SSW,203,0.0,0.0,26,0.00,,,0.00,WUHU216HW,2013-04-27 01:25:00,
2013-04-26 18:30:00,83.4,45.6,30.06,SSW,203,0.0,0.0,27,0.00,,,0.00,WUHU216HW,2013-04-27 01:30:00,
2013-04-26 18:35:00,83.3,45.4,30.06,NNW,338,0.0,0.0,27,0.00,,,0.00,WUHU216HW,2013-04-27 01:35:00,
2013-04-26 18:40:00,82.5,45.8,30.07,North,0,0.0,0.0,28,0.00,,,0.00,WUHU216HW,2013-04-27 01:40:00,
2013-04-26 18:45:00,82.4,45.7,30.06,North,0,0.0,0.0,28,0.00,,,0.00,WUHU216HW,2013-04-27 01:45:00,
2013-04-26 18:50:00,82.0,46.5,30.06,North,0,0.0,0.0,29,0.00,,,0.00,WUHU216HW,2013-04-27 01:50:00,
2013-04-26 18:55:00,81.3,45.9,30.06,SSW,203,0.0,0.0,29,0.00,,,0.00,WUHU216HW,2013-04-27 01:55:00,
2013-04-26 19:00:00,80.9,45.6,30.06,SW,225,0.0,0.0,29,0.00,,,0.00,WUHU216HW,2013-04-27 02:00:00,
2013-04-26 19:05:00,80.7,45.5,30.06,SSW,203,0.0,0.0,29,0.00,,,0.00,WUHU216HW,2013-04-27 02:05:00,
2013-04-26 19:10:00,80.6,46.4,30.07,SSW,203,0.0,0.0,30,0.00,,,0.00,WUHU216HW,2013-04-27 02:10:00,
2013-04-26 19:15:00,80.2,46.0,30.06,SSW,203,0.0,0.0,30,0.00,,,0.00,WUHU216HW,2013-04-27 02:15:00,
2013-04-26 19:20:00,80.0,45.9,30.06,SSW,203,0.0,0.0,30,0.00,,,0.00,WUHU216HW,2013-04-27 02:20:00,
2013-04-26 19:25:00,79.3,46.0,30.07,SSW,203,0.0,0.0,31,0.00,,,0.00,WUHU216HW,2013-04-27 02:25:00,
2013-04-26 19:30:00,79.1,45.8,30.06,WNW,293,0.0,0.0,31,0.00,,,0.00,WUHU216HW,2013-04-27 02:30:00,
2013-04-26 19:35:00,78.6,46.1,30.07,WNW,293,0.0,0.0,32,0.00,,,0.00,WUHU216HW,2013-04-27 02:35:00,
2013-04-26 19:40:00,78.4,46.0,30.07,WNW,293,0.0,0.0,32,0.00,,,0.00,WUHU216HW,2013-04-27 02:40:00,
2013-04-26 19:45:00,77.9,45.5,30.07,WNW,293,0.0,0.0,32,0.00,,,0.00,WUHU216HW,2013-04-27 02:45:00,
2013-04-26 19:50:00,77.7,46.2,30.07,WNW,293,0.0,0.0,33,0.00,,,0.00,WUHU216HW,2013-04-27 02:50:00,
2013-04-26 19:55:00,77.0,45.6,30.07,WNW,293,0.0,0.0,33,0.00,,,0.00,WUHU216HW,2013-04-27 02:55:00,
2013-04-26 20:00:00,76.4,45.8,30.07,NW,315,0.0,0.0,34,0.00,,,0.00,WUHU216HW,2013-04-27 03:00:00,
2013-04-26 20:05:00,75.9,44.6,30.07,NW,315,0.0,0.0,33,0.00,,,0.00,WUHU216HW,2013-04-27 03:05:00,
2013-04-26 20:10:00,75.9,45.3,30.07,NW,315,0.0,0.0,34,0.00,,,0.00,WUHU216HW,2013-04-27 03:10:00,
2013-04-26 20:16:00,75.2,44.7,30.07,NW,315,0.0,0.0,34,0.00,,,0.00,WUHU216HW,2013-04-27 03:16:00,
2013-04-26 20:21:00,74.6,44.2,30.07,NW,315,0.0,0.0,34,0.00,,,0.00,WUHU216HW,2013-04-27 03:21:00,
2013-04-26 20:26:00,74.1,44.5,30.07,NW,315,0.0,0.0,35,0.00,,,0.00,WUHU216HW,2013-04-27 03:26:00,
2013-04-26 20:31:00,73.7,44.9,30.07,NW,315,0.0,0.0,36,0.00,,,0.00,WUHU216HW,2013-04-27 03:31:00,
2013-04-26 20:36:00,73.4,44.6,30.08,NW,315,0.0,0.0,36,0.00,,,0.00,WUHU216HW,2013-04-27 03:36:00,
2013-04-26 20:41:00,72.8,44.9,30.08,NW,315,0.0,0.0,37,0.00,,,0.00,WUHU216HW,2013-04-27 03:41:00,
2013-04-26 20:46:00,72.3,44.4,30.08,NW,315,0.0,0.0,37,0.00,,,0.00,WUHU216HW,2013-04-27 03:46:00,
2013-04-26 20:51:00,71.9,44.8,30.09,NW,315,0.0,0.0,38,0.00,,,0.00,WUHU216HW,2013-04-27 03:51:00,
2013-04-26 20:56:00,71.7,45.4,30.09,NW,315,0.0,0.0,39,0.00,,,0.00,WUHU216HW,2013-04-27 03:56:00,
2013-04-26 21:01:00,71.0,44.8,30.09,NW,315,0.0,0.0,39,0.00,,,0.00,WUHU216HW,2013-04-27 04:01:00,
2013-04-26 21:06:00,70.8,45.3,30.09,West,270,0.0,0.0,40,0.00,,,0.00,WUHU216HW,2013-04-27 04:06:00,
2013-04-26 21:11:00,70.5,45.6,30.10,West,270,0.0,0.0,41,0.00,,,0.00,WUHU216HW,2013-04-27 04:11:00,
2013-04-26 21:16:00,70.1,45.3,30.10,West,270,0.0,0.0,41,0.00,,,0.00,WUHU216HW,2013-04-27 04:16:00,
2013-04-26 21:21:00,69.9,45.7,30.10,West,270,0.0,0.0,42,0.00,,,0.00,WUHU216HW,2013-04-27 04:21:00,
2013-04-26 21:26:00,69.6,45.7,30.10,West,270,0.0,0.0,42,0.00,,,0.00,WUHU216HW,2013-04-27 04:26:00,
2013-04-26 21:31:00,69.4,45.2,30.10,West,270,0.0,0.0,42,0.00,,,0.00,WUHU216HW,2013-04-27 04:31:00,
2013-04-26 21:36:00,69.0,45.5,30.11,West,270,0.0,0.0,43,0.00,,,0.00,WUHU216HW,2013-04-27 04:36:00,
2013-04-26 21:41:00,69.0,46.1,30.10,West,270,0.0,0.0,44,0.00,,,0.00,WUHU216HW,2013-04-27 04:41:00,
2013-04-26 21:46:00,68.7,46.4,30.11,West,270,0.0,0.0,45,0.00,,,0.00,WUHU216HW,2013-04-27 04:46:00,
2013-04-26 21:51:00,68.5,46.2,30.11,West,270,0.0,0.0,45,0.00,,,0.00,WUHU216HW,2013-04-27 04:51:00,
2013-04-26 21:57:00,68.1,46.5,30.11,West,270,0.0,0.0,46,0.00,,,0.00,WUHU216HW,2013-04-27 04:57:00,
2013-04-26 22:02:00,68.1,46.5,30.11,West,270,0.0,0.0,46,0.00,,,0.00,WUHU216HW,2013-04-27 05:02:00,
2013-04-26 22:07:00,67.6,46.6,30.11,West,270,0.0,0.0,47,0.00,,,0.00,WUHU216HW,2013-04-27 05:07:00,
2013-04-26 22:12:00,67.2,46.3,30.11,West,270,0.0,0.0,47,0.00,,,0.00,WUHU216HW,2013-04-27 05:12:00,
2013-04-26 22:17:00,67.1,46.7,30.11,West,270,0.0,0.0,48,0.00,,,0.00,WUHU216HW,2013-04-27 05:17:00,
2013-04-26 22:22:00,66.9,46.5,30.11,West,270,0.0,0.0,48,0.00,,,0.00,WUHU216HW,2013-04-27 05:22:00,
2013-04-26 22:27:00,66.3,46.6,30.12,West,270,0.0,0.0,49,0.00,,,0.00,WUHU216HW,2013-04-27 05:27:00,
2013-04-26 22:32:00,66.3,46.6,30.12,West,270,0.0,0.0,49,0.00,,,0.00,WUHU216HW,2013-04-27 05:32:00,
2013-04-26 22:37:00,66.0,46.3,30.12,West,270,0.0,0.0,49,0.00,,,0.00,WUHU216HW,2013-04-27 05:37:00,
2013-04-26 22:42:00,65.6,45.3,30.12,West,270,0.0,0.0,48,0.00,,,0.00,WUHU216HW,2013-04-27 05:42:00,
2013-04-26 22:47:00,65.3,45.0,30.11,West,270,0.0,0.0,48,0.00,,,0.00,WUHU216HW,2013-04-27 05:47:00,
2013-04-26 22:52:00,65.1,45.4,30.12,West,270,0.0,0.0,49,0.00,,,0.00,WUHU216HW,2013-04-27 05:52:00,
2013-04-26 22:57:00,64.7,45.0,30.12,West,270,0.0,0.0,49,0.00,,,0.00,WUHU216HW,2013-04-27 05:57:00,
2013-04-26 23:02:00,64.7,45.0,30.11,West,270,0.0,0.0,49,0.00,,,0.00,WUHU216HW,2013-04-27 06:02:00,
2013-04-26 23:07:00,64.4,44.7,30.11,West,270,0.0,0.0,49,0.00,,,0.00,WUHU216HW,2013-04-27 06:07:00,
2013-04-26 23:12:00,64.0,44.9,30.12,West,270,0.0,0.0,50,0.00,,,0.00,WUHU216HW,2013-04-27 06:12:00,
2013-04-26 23:18:00,63.8,44.8,30.11,West,270,0.0,0.0,50,0.00,,,0.00,WUHU216HW,2013-04-27 06:18:00,
2013-04-26 23:23:00,63.5,44.5,30.11,West,270,0.0,0.0,50,0.00,,,0.00,WUHU216HW,2013-04-27 06:23:00,
2013-04-26 23:28:00,63.3,44.8,30.11,West,270,0.0,0.0,51,0.00,,,0.00,WUHU216HW,2013-04-27 06:28:00,
2013-04-26 23:33:00,62.9,44.5,30.11,West,270,0.0,0.0,51,0.00,,,0.00,WUHU216HW,2013-04-27 06:33:00,
2013-04-26 23:38:00,62.7,44.3,30.11,West,270,0.0,0.0,51,0.00,,,0.00,WUHU216HW,2013-04-27 06:38:00,
2013-04-26 23:43:00,62.6,44.1,30.11,West,270,0.0,0.0,51,0.00,,,0.00,WUHU216HW,2013-04-27 06:43:00,
2013-04-26 23:48:00,62.2,44.3,30.11,West,270,0.0,0.0,52,0.00,,,0.00,WUHU216HW,2013-04-27 06:48:00,
2013-04-26 23:53:00,62.0,44.1,30.11,West,270,0.0,0.0,52,0.00,,,0.00,WUHU216HW,2013-04-27 06:53:00,
2013-04-26 23:58:00,61.7,44.8,30.11,West,270,0.0,0.0,54,0.00,,,0.00,WUHU216HW,2013-04-27 06:58:00,